Regional Weather Roundup
Issued by NWS

Home | Current Version | Previous Version | Text Only | Print | Product List | Glossary On
Versions: 1 2 3 4 5 6 7 8 9 10 11 12 13 14 15 16 17 18 19 20 21 22 23 24 25 26 27 28 29 30 31 32 33 34 35 36 37 38 39 40 41 42 43 44 45 46 47 48 49 50
000
ASUS44 KEWX 310102
RWRTX
SOUTH TEXAS REGIONAL WEATHER ROUNDUP
NATIONAL WEATHER SERVICE AUSTIN/SAN ANTONIO TX
800 PM CDT SAT AUG 30 2014

NOTE: "FAIR" INDICATED FEW OR NO CLOUDS BELOW 12,000 FEET WITH NO
SIGNIFICANT WEATHER AND/OR OBSTRUCTIONS TO VISIBILITY.

* - THESE STATIONS ARE NOT NWS OR FAA STATIONS...AND ARE NOT SUBJECT
    TO NWS AND FAA QUALITY CONTROL.

TXZ171-172-183>190-310200-
TEXAS HILL COUNTRY AND EDWARDS PLATEAU

CITY           SKY/WX    TMP DP  RH WIND       PRES   REMARKS
JUNCTION       CLOUDY    86  66  51 SE10      29.92R
*LLANO         MOCLDY    86  70  58 E8        29.94R HX  90
BURNET         MOCLDY    87  65  47 SE7       29.93S
*HORSESHOE BAY PTCLDY    87  64  46 CALM      29.90S
*KERRVILLE     CLEAR     87  67  51 SE8       29.93R
*FREDERICKSBRG MOCLDY    87  62  42 SE7       29.93R
*ROCKSPRINGS   MOCLDY    84  68  58 E15       29.97S
*BOERNE STAGE  CLEAR     88  59  37 SE7       29.91S
*CASTROVILLE   PTCLDY    93  62  34 SE9       29.87F HX  94
HONDO          CLEAR     92  65  40 SE14      29.88S HX  94
*UVALDE        CLEAR     93  64  37 SE9       29.87R HX  94
DEL RIO        CLEAR     97  62  31 SE12      29.81F HX  98
LAUGHLIN AFB   NOT AVBL
CARRIZO SPRGS  CLEAR     93  66  40 SE14G20   29.82S HX  96
$$

TXZ173-191>194-202-209-217>225-228-310200-
CENTRAL AND SOUTH CENTRAL TEXAS

CITY           SKY/WX    TMP DP  RH WIND       PRES   REMARKS
GEORGETOWN     PTCLDY    88  66  48 E6        29.89S HX  90
AUSTIN/BERGSTM PTCLDY    90  69  50 SE13G20   29.87S HX  94
AUSTIN/MABRY   CLEAR     90  66  45 E7        29.88S HX  92
*AUSTIN/EXEC   CLEAR     88  68  51 E9        29.88F HX  91
*LAGO VISTA    CLEAR     87  65  47 E7        29.91F
SAN MARCOS     CLEAR     88  66  48 SE10      29.89R HX  90
NEW BRAUNFELS  CLEAR     89  69  51 SE16      29.86S HX  93
RANDOLPH AFB   CLEAR     88  69  52 SE16      29.88R HX  92
PT SAN ANTONIO PTCLDY    91  70  50 SE14G26   29.86R HX  95
SAN ANTONIO    PTCLDY    90  69  50 SE22      29.87S HX  94
STINSON FIELD  PTCLDY    90  69  50 SE12      29.85R HX  94
*PLEASANTON    CLEAR     89  67  49 SE16      29.87R HX  91
*LA GRANGE     PTCLDY    88  74  64 S10       29.88S HX  97
*GIDDINGS      PTCLDY    87  69  54 SE7       29.92S HX  91
*GONZALES      PTCLDY    87  74  64 SE14      29.88R HX  95
$$

TXZ163>164-176>182-195>201-210>213-226-227-235-310200-
SOUTHEAST TEXAS

CITY           SKY/WX    TMP DP  RH WIND       PRES   REMARKS
COLLEGE STN    PTCLDY    88  69  53 S6        29.89R HX  92
*BRYAN         PTCLDY    85  71  63 SE3       29.88S HX  90
*CALDWELL      PTCLDY    88  68  51 CALM      29.92R HX  91
*CROCKETT      PTCLDY    88  75  66 SE6       29.93S HX  97
*BRENHAM       PTCLDY    87  73  62 S9        29.90S HX  94
HUNTSVILLE     PTCLDY    86  73  65 SE3       29.91R HX  93
CONROE         MOCLDY    81  72  74 SE9       29.92S
HOUSTON BUSH   MOCLDY    82  75  78 S14       29.92R
HOUSTON HOBBY  MOCLDY    80  73  79 S9        29.92R
*HOUSTON SW AP MOCLDY    79  73  83 S7        29.93S
PEARLAND       MOCLDY    81  73  76 S9        29.94S
HOUSTON HOOKS  MOCLDY    83  73  72 SE8       29.91R
ELLINGTON FLD  MOCLDY    81  73  78 S8        29.94R
SUGAR LAND     MOCLDY    81  75  82 S10       29.93R
*HOUSTON EXEC  MOCLDY    81  81 100 SE14      29.93R HX  91
*CLEVELAND MUN MOCLDY    79  76  91 CALM      29.94R
*WHARTON       CLEAR     80  71  75 SE8       29.93S
$$

TXZ214>216-236>238-310200-
THE UPPER TEXAS COAST

CITY           SKY/WX    TMP DP  RH WIND       PRES   REMARKS
*ORANGE        CLOUDY    76  76 100 SE5       29.97S
PORT ARTHUR    CLOUDY    78  75  90 SE8       29.95S
GALVESTON      MOCLDY    80  76  87 S15       29.94F
ANGLETON       CLOUDY    79  74  84 SE9       29.93F
*BAY CITY      PTCLDY    82  73  76 SE7       29.92F
PALACIOS       CLEAR     81  73  76 SE13      29.91F
$$

TXZ229>234-239>247-310200-
TEXAS COASTAL BEND AND RIO GRANDE PLAINS

CITY           SKY/WX    TMP DP  RH WIND       PRES   REMARKS
VICTORIA       CLEAR     83  74  74 SE15      29.91S
*BEEVILLE      CLEAR     83  70  65 SE14G22   29.90R
ROCKPORT       MOCLDY    82  75  79 SE15      29.90S
*PORT ARANSAS  MOCLDY    81  75  82 SE14      29.90S
*PORT LAVACA   PTCLDY    80  74  84 SE14      29.90F
*INGLESIDE     MOCLDY    83  74  75 SE14      29.90S HX  90
CORPUS CHRISTI MOCLDY    81  75  82 SE16      29.90S
CORPUS NAS     MOCLDY    83  77  82 SE15      29.90S HX  92
*ROBSTOWN      MOCLDY    83  75  77 SE13      29.90S
ALICE          CLOUDY    82  74  76 SE13      29.89R
KINGSVILLE NAS CLOUDY    79  78  97 SE13      29.90S
COTULLA        CLEAR     92  67  43 SE20G28   29.84R HX  95
*FAITH RANCH   CLEAR     95  64  36 E10G17    29.84R HX  97
LAREDO         CLEAR     89  72  57 SE20      29.88R HX  96
$$

TXZ248>255-310200-
DEEP SOUTH TEXAS

CITY           SKY/WX    TMP DP  RH WIND       PRES   REMARKS
BROWNSVILLE    CLOUDY    81  76  84 E8        29.89S
PORT ISABEL    CLOUDY    83  76  79 E8        29.90R HX  91
*SOUTH PADRE   CLOUDY    82  77  83 E12       29.89S HX  91
HARLINGEN      CLOUDY    82  76  81 E14       29.88R
*HEBBRONVILLE  CLOUDY    83  69  63 SE14      29.91R
MCALLEN        CLOUDY    83  77  82 E14       29.87S HX  92
*WESLACO       NOT AVBL
FALFURRIAS     CLOUDY    75  68  79 E7        29.88F
EDINBURG       CLOUDY    83  75  75 SE12G17   29.88F HX  90
*ZAPATA        CLOUDY    84  72  65 E14G21    29.85S HX  90
$$

TXZ213>215-236>238-242>244-246-247-251-254-255-310200-
CMAN STATIONS

STATION/POSITION TIME  TEMP    WIND        PRES    WAVE
                       AIR SEA DIR/SP/G            HT/PER
                 (UTC) (F)     (DEG/KT/KT) (MB)    (FT/S)
SABINE PASS      0000   79 82  180/  8/ 14 1013.9
SEA RIM ST PARK  0000   79     160/ 13/ 15 1014.3
NORTH JETTY/GLS  0000   81 83  180/ 17/ 19   N/A
EAGLE POINT      0000          180/ 13/ 15   N/A
MORGANS POINT    0000   81     160/  8/ 12 1013.2
MISSION/ARANSAS  0000   80     130/ 14     1014.0
PORT O`CONNOR    0000          130/ 15/ 17   N/A
PORT ARANSAS     0000   81 84  110/ 19/ 20 1013.1
MALAQUITE BEACH  0000   82 84  110/ 16/ 19 1011.7
BAFFIN BAY       0000   82 82  110/ 13/ 15 1012.3
PORT ISABEL      0000   81 82   90/  5/ 14 1012.3
$$

GMZ080-GMZ150>470-310200-
OFFSHORE BUOY REPORTS

STATION/POSITION TIME  TEMP    WIND        PRES    WAVE
                       AIR SEA DIR/SP/G            HT/PER
                 (UTC) (F)     (DEG/KT/KT) (MB)    (FT/S)
20 E GALVESTON   0100   80 85  170/ 14/ 16 1013.3    4/ 8
90 E PT ARANSAS  0100   80 85  140/ 14/ 16 1013.5    5/ 7
35 NE PT MANSFLD 0000   82 85  120/ 16/ 19 1011.7    4/ 7
200 E PT ISABEL  0000   84 86   CALM  /  4 1014.1    5/ 7
$$


USA.gov is the U.S. government's official web portal to all federal, state and local government web resources and services.